Flag for U.S.A. Weather past 2 weeks in Stamford, Connecticut, U.S.A.

Now
60 °F

Overcast.


Feels Like: 60 °F
Forecast: 58 / 66 °F
Wind: 6 mph from Northeast

Location: Westchester County Airport

Current Time: Oct 1, 2014 at 10:00:42 PM

Latest Report: Oct 1, 2014 at 8:56 PM


Visibility: 10 mi

Pressure: 30.06 "Hg

Humidity: 83%

Dew point: 55 °F

Location of StamfordLocation

Historic Weather in Stamford — Graph

°F

Stamford temperature yesterday

Maximum temperature yesterday: 65 °F (at 2:56 AM)
Minimum temperature yesterday: 60 °F (at 9:56 PM)
Average temperature yesterday: 63 °F

Past Weeks' High & Low Weather Summary

 TemperatureHumidityPressure
High83 °F (Sep 28, 2:56 PM)100% (Sep 21, 8:56 AM)30.57 "Hg (Sep 21, 8:56 AM)
Low42 °F (Sep 23, 5:56 AM)32% (Sep 18, 3:56 PM)29.61 "Hg (Sep 21, 6:56 PM)
Average62 °F73%30.11 "Hg
* Reported Sep 16 8:56 PM — Oct 1 8:56 PM, Stamford, Weather by CustomWeather, © 2014

Note: Actual official high and low records may vary slightly from our data, if they occured in-between our weather recording intervals... More about our weather records

Advertising

Stamford weather history for previous 24 hours

 ConditionsComfort  
Time TempWeatherWind HumidityBarometerVisibility
8:56 PM
Oct 1
60 °FOvercast.6 mph83%30.06 "Hg10 mi
7:56 PM61 °FMostly cloudy.8 mph81%30.06 "Hg10 mi
6:56 PM61 °FPartly sunny.6 mph83%30.05 "Hg10 mi
5:56 PM62 °FBroken clouds.6 mph83%30.04 "Hg8 mi
4:56 PM63 °FMostly cloudy.6 mph81%30.03 "Hg8 mi
3:56 PM63 °FFog.7 mph87%30.03 "Hg6 mi
2:56 PM62 °FFog.5 mph90%30.03 "Hg4 mi
1:56 PM62 °FDrizzle. Fog.7 mph86%30.03 "Hg4 mi
12:56 PM62 °FFog.6 mph90%30.04 "Hg3 mi
11:56 AM61 °FMostly cloudy.6 mph90%30.05 "Hg7 mi
10:56 AM62 °FMostly cloudy.9 mph83%30.04 "Hg7 mi
9:56 AM61 °FLow clouds.6 mph87%30.04 "Hg8 mi
8:56 AM60 °FFog.6 mph90%30.03 "Hg5 mi
7:56 AM59 °FLight rain. Fog.5 mph90%30.02 "Hg2 mi
6:56 AM59 °FLight rain. Fog.8 mph93%30.01 "Hg2 mi
5:56 AM59 °FLight rain. Mostly cloudy.5 mph90%30.00 "Hg10 mi
4:56 AM59 °FOvercast.7 mph90%29.98 "Hg10 mi
3:56 AM59 °FMostly cloudy.6 mph90%29.98 "Hg9 mi
2:56 AM59 °FLight rain. Mostly cloudy.3 mph90%29.98 "Hg10 mi
1:56 AM60 °FMostly cloudy.5 mph86%29.99 "Hg10 mi
12:56 AM60 °FMostly cloudy.5 mph86%29.98 "Hg10 mi
11:56 PM
Sep 30
60 °FPassing clouds.6 mph86%29.99 "Hg10 mi
10:56 PM60 °FPassing clouds.3 mph86%29.99 "Hg10 mi
Weather by CustomWeather, © 2014

See weather overviewHow to use our weather pages